Time,TemperatureF,DewpointF,PressureIn,WindDirection,WindDirectionDegrees,WindSpeedMPH,WindSpeedGustMPH,Humidity,HourlyPrecipIn,Conditions,Clouds,dailyrainin,SoftwareType,DateUTC
2013-09-16 00:13:00,51.0,46.0,30.29,North,-999,0.0,-999.0,83,-99.99,,,-99.99,,2013-09-16 05:13:00,
2013-09-16 00:22:00,51.0,46.0,30.29,North,-999,0.0,-999.0,83,-99.99,,,-99.99,,2013-09-16 05:22:00,
2013-09-16 00:52:00,50.0,45.0,30.30,North,-999,0.0,-999.0,82,-99.99,,,-99.99,,2013-09-16 05:52:00,
2013-09-16 01:12:00,50.0,45.0,30.31,North,-999,0.0,-999.0,83,-99.99,,,-99.99,,2013-09-16 06:12:00,
2013-09-16 01:22:00,49.0,45.0,30.31,North,-999,0.0,-999.0,85,-99.99,,,-99.99,,2013-09-16 06:22:00,
2013-09-16 01:52:00,49.0,45.0,30.31,North,-999,0.0,-999.0,85,-99.99,,,-99.99,,2013-09-16 06:52:00,
2013-09-16 02:11:00,48.0,44.0,30.31,North,-999,0.0,-999.0,85,-99.99,,,-99.99,,2013-09-16 07:11:00,
2013-09-16 02:22:00,48.0,43.0,30.32,North,-999,0.0,-999.0,84,-99.99,,,-99.99,,2013-09-16 07:22:00,
2013-09-16 02:52:00,48.0,43.0,30.32,North,-999,0.0,-999.0,82,-99.99,,,-99.99,,2013-09-16 07:52:00,
2013-09-16 03:22:00,48.0,43.0,30.32,North,-999,0.0,-999.0,82,-99.99,,,-99.99,,2013-09-16 08:22:00,
2013-09-16 03:52:00,47.0,42.0,30.34,North,-999,0.0,-999.0,84,-99.99,,,-99.99,,2013-09-16 08:52:00,
2013-09-16 04:12:00,46.0,42.0,30.33,North,-999,0.0,-999.0,85,-99.99,,,-99.99,,2013-09-16 09:12:00,
2013-09-16 04:22:00,46.0,42.0,30.33,North,-999,0.0,-999.0,87,-99.99,,,-99.99,,2013-09-16 09:22:00,
2013-09-16 04:43:00,46.0,41.0,30.34,North,-999,0.0,-999.0,83,-99.99,,,-99.99,,2013-09-16 09:43:00,
2013-09-16 04:53:00,47.0,41.0,30.34,North,-999,0.0,-999.0,80,-99.99,,,-99.99,,2013-09-16 09:53:00,
2013-09-16 05:12:00,47.0,41.0,30.34,North,-999,0.0,-999.0,80,-99.99,,,-99.99,,2013-09-16 10:12:00,
2013-09-16 05:23:00,47.0,42.0,30.34,North,-999,0.0,-999.0,82,-99.99,,,-99.99,,2013-09-16 10:23:00,
2013-09-16 05:53:00,45.0,41.0,30.35,North,-999,0.0,-999.0,87,-99.99,,,-99.99,,2013-09-16 10:53:00,
2013-09-16 06:12:00,45.0,42.0,30.35,North,-999,0.0,-999.0,89,-99.99,,,-99.99,,2013-09-16 11:12:00,
2013-09-16 06:22:00,45.0,42.0,30.35,North,-999,0.0,-999.0,89,-99.99,,,-99.99,,2013-09-16 11:22:00,
2013-09-16 06:42:00,44.0,41.0,30.35,North,-999,0.0,-999.0,90,-99.99,,,-99.99,,2013-09-16 11:42:00,
2013-09-16 06:52:00,44.0,41.0,30.36,North,-999,0.0,-999.0,90,-99.99,,,-99.99,,2013-09-16 11:52:00,
2013-09-16 07:12:00,44.0,41.0,30.36,North,-999,0.0,-999.0,90,-99.99,,,-99.99,,2013-09-16 12:12:00,
2013-09-16 07:22:00,43.0,40.0,30.37,North,-999,0.0,-999.0,90,-99.99,,,-99.99,,2013-09-16 12:22:00,
2013-09-16 07:52:00,44.0,41.0,30.37,North,-999,0.0,-999.0,88,-99.99,,,-99.99,,2013-09-16 12:52:00,
2013-09-16 08:11:00,45.0,41.0,30.37,North,-999,0.0,-999.0,85,-99.99,,,-99.99,,2013-09-16 13:11:00,
2013-09-16 08:22:00,46.0,42.0,30.37,North,-999,0.0,-999.0,85,-99.99,,,-99.99,,2013-09-16 13:22:00,
2013-09-16 08:52:00,47.0,43.0,30.37,North,-999,0.0,-999.0,85,-99.99,,,-99.99,,2013-09-16 13:52:00,
2013-09-16 09:11:00,47.0,43.0,30.38,North,-999,0.0,-999.0,85,-99.99,,,-99.99,,2013-09-16 14:11:00,
2013-09-16 09:22:00,48.0,43.0,30.38,North,-999,0.0,-999.0,83,-99.99,,,-99.99,,2013-09-16 14:22:00,
2013-09-16 09:52:00,49.0,44.0,30.38,North,-999,0.0,-999.0,82,-99.99,,,-99.99,,2013-09-16 14:52:00,
2013-09-16 10:12:00,51.0,44.0,30.38,North,-999,0.0,-999.0,78,-99.99,,,-99.99,,2013-09-16 15:12:00,
2013-09-16 10:22:00,52.0,44.0,30.39,North,-999,0.0,-999.0,73,-99.99,,,-99.99,,2013-09-16 15:22:00,
2013-09-16 10:53:00,53.0,44.0,30.39,North,-999,0.0,-999.0,72,-99.99,,,-99.99,,2013-09-16 15:53:00,
2013-09-16 11:23:00,54.0,45.0,30.39,North,-999,0.0,-999.0,71,-99.99,,,-99.99,,2013-09-16 16:23:00,
2013-09-16 11:43:00,54.0,45.0,30.39,North,-999,0.0,-999.0,71,-99.99,,,-99.99,,2013-09-16 16:43:00,
2013-09-16 11:52:00,55.0,46.0,30.39,North,-999,0.0,-999.0,71,-99.99,,,-99.99,,2013-09-16 16:52:00,
2013-09-16 12:12:00,56.0,46.0,30.38,North,-999,0.0,-999.0,69,-99.99,,,-99.99,,2013-09-16 17:12:00,
2013-09-16 12:23:00,57.0,45.0,30.38,North,-999,0.0,-999.0,65,-99.99,,,-99.99,,2013-09-16 17:23:00,
2013-09-16 12:53:00,59.0,46.0,30.37,North,-999,0.0,-999.0,63,-99.99,,,-99.99,,2013-09-16 17:53:00,
2013-09-16 13:12:00,60.0,46.0,30.37,North,-999,0.0,-999.0,60,-99.99,,,-99.99,,2013-09-16 18:12:00,
2013-09-16 13:22:00,60.0,47.0,30.37,North,-999,0.0,-999.0,61,-99.99,,,-99.99,,2013-09-16 18:22:00,
2013-09-16 13:42:00,62.0,47.0,30.37,North,-999,0.0,-999.0,59,-99.99,,,-99.99,,2013-09-16 18:42:00,
2013-09-16 13:52:00,61.0,46.0,30.37,North,-999,0.0,-999.0,58,-99.99,,,-99.99,,2013-09-16 18:52:00,
2013-09-16 14:11:00,60.0,45.0,30.36,North,-999,0.0,-999.0,58,-99.99,,,-99.99,,2013-09-16 19:11:00,
2013-09-16 14:22:00,62.0,46.0,30.35,North,-999,0.0,-999.0,55,-99.99,,,-99.99,,2013-09-16 19:22:00,
2013-09-16 14:42:00,64.0,47.0,30.35,North,-999,0.0,-999.0,53,-99.99,,,-99.99,,2013-09-16 19:42:00,
2013-09-16 14:53:00,64.0,47.0,30.35,North,-999,0.0,-999.0,53,-99.99,,,-99.99,,2013-09-16 19:53:00,
2013-09-16 15:11:00,65.0,47.0,30.33,North,-999,0.0,-999.0,53,-99.99,,,-99.99,,2013-09-16 20:11:00,
2013-09-16 15:22:00,64.0,47.0,30.32,North,-999,0.0,-999.0,53,-99.99,,,-99.99,,2013-09-16 20:22:00,
2013-09-16 15:43:00,65.0,47.0,30.32,North,-999,0.0,-999.0,53,-99.99,,,-99.99,,2013-09-16 20:43:00,
2013-09-16 15:52:00,66.0,47.0,30.31,North,-999,0.0,-999.0,50,-99.99,,,-99.99,,2013-09-16 20:52:00,
2013-09-16 16:11:00,67.0,47.0,30.31,North,-999,0.0,-999.0,48,-99.99,,,-99.99,,2013-09-16 21:11:00,
2013-09-16 16:22:00,68.0,48.0,30.29,North,-999,0.0,-999.0,48,-99.99,,,-99.99,,2013-09-16 21:22:00,
2013-09-16 16:55:00,69.0,47.0,30.28,North,-999,0.0,-999.0,46,-99.99,,,-99.99,,2013-09-16 21:55:00,
2013-09-16 17:13:00,68.0,46.0,30.28,North,-999,0.0,-999.0,46,-99.99,,,-99.99,,2013-09-16 22:13:00,
2013-09-16 17:24:00,69.0,47.0,30.27,North,-999,0.0,-999.0,45,-99.99,,,-99.99,,2013-09-16 22:24:00,
2013-09-16 17:43:00,69.0,47.0,30.27,North,-999,0.0,-999.0,46,-99.99,,,-99.99,,2013-09-16 22:43:00,
2013-09-16 17:53:00,69.0,47.0,30.26,North,-999,0.0,-999.0,45,-99.99,,,-99.99,,2013-09-16 22:53:00,
2013-09-16 18:12:00,69.0,46.0,30.26,North,-999,0.0,-999.0,44,-99.99,,,-99.99,,2013-09-16 23:12:00,
2013-09-16 18:22:00,68.0,46.0,30.26,North,-999,0.0,-999.0,46,-99.99,,,-99.99,,2013-09-16 23:22:00,
2013-09-16 18:52:00,68.0,48.0,30.25,North,-999,0.0,-999.0,48,-99.99,,,-99.99,,2013-09-16 23:52:00,
2013-09-16 19:11:00,66.0,48.0,30.25,North,-999,0.0,-999.0,52,-99.99,,,-99.99,,2013-09-17 00:11:00,
2013-09-16 19:22:00,64.0,46.0,30.24,North,-999,0.0,-999.0,52,-99.99,,,-99.99,,2013-09-17 00:22:00,
2013-09-16 19:42:00,64.0,47.0,30.23,North,-999,0.0,-999.0,55,-99.99,,,-99.99,,2013-09-17 00:42:00,
2013-09-16 19:52:00,63.0,47.0,30.23,North,-999,0.0,-999.0,56,-99.99,,,-99.99,,2013-09-17 00:52:00,
2013-09-16 20:11:00,62.0,48.0,30.23,North,-999,0.0,-999.0,60,-99.99,,,-99.99,,2013-09-17 01:11:00,
2013-09-16 20:21:00,60.0,47.0,30.23,North,-999,0.0,-999.0,63,-99.99,,,-99.99,,2013-09-17 01:21:00,
2013-09-16 20:42:00,59.0,47.0,30.23,North,-999,0.0,-999.0,65,-99.99,,,-99.99,,2013-09-17 01:42:00,
2013-09-16 20:52:00,58.0,46.0,30.24,North,-999,0.0,-999.0,65,-99.99,,,-99.99,,2013-09-17 01:52:00,
2013-09-16 21:12:00,59.0,47.0,30.24,North,-999,0.0,-999.0,64,-99.99,,,-99.99,,2013-09-17 02:12:00,
2013-09-16 21:22:00,58.0,45.0,30.24,North,-999,0.0,-999.0,63,-99.99,,,-99.99,,2013-09-17 02:22:00,
2013-09-16 21:42:00,57.0,45.0,30.23,North,-999,0.0,-999.0,65,-99.99,,,-99.99,,2013-09-17 02:42:00,
2013-09-16 21:52:00,58.0,46.0,30.24,North,-999,0.0,-999.0,64,-99.99,,,-99.99,,2013-09-17 02:52:00,
2013-09-16 22:11:00,58.0,45.0,30.23,North,-999,0.0,-999.0,63,-99.99,,,-99.99,,2013-09-17 03:11:00,
2013-09-16 22:23:00,57.0,45.0,30.23,North,-999,0.0,-999.0,63,-99.99,,,-99.99,,2013-09-17 03:23:00,
2013-09-16 22:54:00,57.0,45.0,30.23,North,-999,0.0,-999.0,64,-99.99,,,-99.99,,2013-09-17 03:54:00,
2013-09-16 23:24:00,56.0,44.0,30.23,North,-999,0.0,-999.0,65,-99.99,,,-99.99,,2013-09-17 04:24:00,
2013-09-16 23:53:00,55.0,44.0,30.23,North,-999,0.0,-999.0,67,-99.99,,,-99.99,,2013-09-17 04:53:00,